Flag for Bolivia Weather past 2 weeks in Oruro, Bolivia

Now
41 °F

Fog.


Feels Like: 41 °F
Forecast: 29 / 55 °F
Wind: No wind

Location: Cochabamba Airport

Current Time: Jul 5, 2015 at 6:31:58 AM

Latest Report: Jul 5, 2015 at 6:00 AM


Visibility: 0 mi

Pressure: 30.30 "Hg (19.18 "Hg at 3722m altitude)

Humidity: 100%

Dew point: 41 °F

Location of OruroLocation

Historic Weather in Oruro — Graph

°F

Oruro temperature yesterday

Maximum temperature yesterday: 59 °F (at 1:00 AM)
Minimum temperature yesterday: 48 °F (at 11:00 AM)
Average temperature yesterday: 51 °F

Past Weeks' High & Low Weather Summary

 TemperatureHumidityPressure
High82 °F (Jun 26, 3:00 PM)100% (Jul 4, 7:00 AM)30.45 "Hg (Jul 4, 7:00 AM)
Low36 °F (Jun 30, 7:00 AM)7% (Jun 26, 6:00 PM)30.04 "Hg (Jul 2, 5:00 PM)
Average58 °F45%30.28 "Hg
* Reported Jun 20 5:00 AM — Jul 5 5:00 AM, Oruro, Weather by CustomWeather, © 2015

Note: Actual official high and low records may vary slightly from our data, if they occured in-between our weather recording intervals... More about our weather records

Advertising

Oruro weather history for previous 24 hours

 ConditionsComfort  
Time TempWeatherWind HumidityBarometerVisibility
5:00 AM
Sun, Jul 5
41 °FFog.No wind100%30.30 "Hg0 mi
2:00 AM46 °FPassing clouds.No wind93%30.33 "Hg5 mi
1:00 AM46 °FPassing clouds.No wind93%30.33 "Hg5 mi
12:00 AM46 °FFog.No wind100%30.33 "Hg3 mi
11:00 PM
Sat, Jul 4
48 °FFog.No wind94%30.33 "Hg3 mi
10:00 PM48 °FFog.No wind94%30.33 "Hg3 mi
9:00 PM48 °FPartly cloudy.No wind94%30.30 "HgN/A
8:00 PM50 °FPartly cloudy.No wind88%30.27 "HgN/A
7:00 PM50 °FPartly cloudy.3 mph88%30.27 "HgN/A
6:00 PM50 °FMore clouds than sun.3 mph82%30.27 "HgN/A
5:00 PM52 °FMore clouds than sun.5 mph72%30.24 "HgN/A
4:00 PM52 °FMore clouds than sun.5 mph82%30.24 "HgN/A
3:00 PM50 °FMore clouds than sun.13 mph82%30.24 "HgN/A
2:00 PM48 °FLight rain. Cloudy.5 mph94%30.36 "Hg3 mi
1:00 PM50 °FLight rain. More clouds than sun.5 mph88%30.36 "Hg4 mi
12:00 PM50 °FLight rain. Cloudy.6 mph88%30.39 "Hg4 mi
11:00 AM48 °FLight rain. Cloudy.3 mph94%30.39 "Hg4 mi
10:00 AM50 °FLight rain. Cloudy.6 mph94%30.39 "Hg4 mi
9:00 AM52 °FLight rain. Cloudy.3 mph88%30.36 "Hg4 mi
8:00 AM50 °FLight rain. More clouds than sun.5 mph62%30.33 "Hg4 mi
7:00 AM50 °FLight rain. Mostly cloudy.No wind100%30.33 "Hg2 mi
6:00 AM52 °FLight rain. Mostly cloudy.No wind94%30.30 "Hg4 mi
Weather by CustomWeather, © 2015

See weather overviewHow to use our weather pages